Location: Colorado Springs
(38.8340°N, 104.8210°W)
Time: 00:51:37
(UTC-06:00)

Envisat - Pass Details

Date: 09 October 2017
Orbit: 764 x 766 km, 98.2° (Epoch: 20 October)

Event Time Altitude Azimuth Distance (km) Brightness Sun altitude
Exits shadow 19:44:40 21° 69° (ENE) 1,656 4.2 -15.5°
Maximum altitude 19:44:50 21° 66° (ENE) 1,655 4.2 -15.5°
Drops below altitude 10° 19:48:36 10° 18° (NNE) 2,309 5.3 -16.3°
Sets 19:51:23 0° 3° (N) 3,239 6.3 -16.8°
